Savoonga, AK

10:24 AM AKDT on October 20, 2017 (GMT -0800)
Savoonga

Weather History for PASA - September, 2013

Change the Weather History Date:

Wednesday, September 11, 2013

  Actual Average Record
Temperature  
Mean Temperature 38 °F -  
Max Temperature 46 °F 43 °F 55 °F (2007)
Min Temperature 30 °F 36 °F 30 °F (2013)
Degree Days  
Heating Degree Days 27    
Moisture  
Dew Point 36 °F    
Average Humidity 88    
Maximum Humidity 93    
Minimum Humidity 70    
Precipitation  
Precipitation 0.02 in - - ()
Sea Level Pressure  
Sea Level Pressure 29.69 in    
Wind  
Wind Speed 5 mph (SSE)    
Max Wind Speed 17 mph    
Max Gust Speed 20 mph    
Visibility 9 miles    
Events      
Averages and records for this station are not official NWS values.
T = Trace of Precipitation, MM = Missing Value Source: NWS Daily Summary

Daily Weather History Graph

Daily Weather History Graph

Search for Another Location

Airport or City:

Trip Planner

Search our weather history database for the weather conditions in past years. The results will help you decide how hot, cold, wet, or windy it might be!

Date:

Astronomy

Sep. 11, 2013 Rise Set
Actual Time 8:35 AM AKDT 9:59 PM AKDT
Civil Twilight 7:46 AM AKDT 10:47 PM AKDT
Nautical Twilight 6:44 AM AKDT 11:49 PM AKDT
Astronomical Twilight 5:24 AM AKDT 1:07 AM AKDT
Moon 5:39 PM AKDT (9/11) 11:46 PM AKDT (9/11)
Length of Visible Light 15h 01m
Length of Day
13h 23m
Waxing Crescent, 40% of the Moon is Illuminated
Sep 11
Waxing Crescent
Sep 12
First Quarter
Sep 19
Full
Sep 26
Last Quarter
Oct 4
New

Hourly Weather History & Observations

Time (AKDT) Temp. Windchill Dew Point Humidity Pressure Visibility Wind Dir Wind Speed Gust Speed Precip Events Conditions
12:16 AM 37.4 °F - 33.8 °F 87% 29.72 in 10.0 mi Calm Calm - N/A   Overcast
12:36 AM 35.6 °F - 33.8 °F 93% 29.72 in 10.0 mi Calm Calm - N/A   Overcast
12:56 AM 35.6 °F - 32.0 °F 87% 29.72 in 10.0 mi Calm Calm - N/A   Overcast
1:16 AM 35.6 °F 31.7 °F 33.8 °F 93% 29.72 in 10.0 mi SSE 4.6 mph - N/A   Mostly Cloudy
1:36 AM 35.6 °F 30.7 °F 33.8 °F 93% 29.72 in 10.0 mi ESE 5.8 mph - N/A   Partly Cloudy
1:56 AM 35.6 °F 30.7 °F 32.0 °F 87% 29.72 in 10.0 mi ESE 5.8 mph - N/A   Clear
2:16 AM 35.6 °F 31.7 °F 33.8 °F 93% 29.72 in 10.0 mi SE 4.6 mph - N/A   Clear
2:36 AM 35.6 °F 30.7 °F 32.0 °F 87% 29.72 in 10.0 mi SE 5.8 mph - N/A   Partly Cloudy
2:56 AM 33.8 °F 30.8 °F 30.2 °F 87% 29.72 in 10.0 mi South 3.5 mph - N/A   Scattered Clouds
3:16 AM 33.8 °F 29.6 °F 30.2 °F 87% 29.72 in 10.0 mi SSE 4.6 mph - N/A   Overcast
3:36 AM 35.6 °F 31.7 °F 33.8 °F 93% 29.72 in 10.0 mi SE 4.6 mph - N/A   Overcast
3:56 AM 35.6 °F 31.7 °F 33.8 °F 93% 29.72 in 10.0 mi SE 4.6 mph - N/A   Overcast
4:16 AM 37.4 °F 34.9 °F 33.8 °F 87% 29.72 in 10.0 mi East 3.5 mph - N/A   Overcast
4:36 AM 37.4 °F 32.1 °F 33.8 °F 87% 29.72 in 10.0 mi East 6.9 mph - N/A   Overcast
4:56 AM 37.4 °F - 33.8 °F 87% 29.72 in 10.0 mi Calm Calm - N/A   Overcast
5:16 AM 37.4 °F 33.8 °F 33.8 °F 87% 29.72 in 10.0 mi SE 4.6 mph - N/A   Overcast
5:36 AM 35.6 °F 31.7 °F 33.8 °F 93% 29.71 in 10.0 mi SSE 4.6 mph - N/A   Overcast
5:56 AM 35.6 °F 30.7 °F 33.8 °F 93% 29.71 in 10.0 mi SSE 5.8 mph - N/A   Overcast
6:16 AM 35.6 °F 32.8 °F 33.8 °F 93% 29.71 in 10.0 mi SSE 3.5 mph - N/A   Overcast
6:36 AM 35.6 °F 32.8 °F 32.0 °F 87% 29.71 in 10.0 mi SSE 3.5 mph - N/A   Overcast
6:56 AM 35.6 °F - 32.0 °F 87% 29.71 in 10.0 mi Calm Calm - N/A   Overcast
7:16 AM 33.8 °F 29.6 °F 30.2 °F 87% 29.71 in 10.0 mi South 4.6 mph - N/A   Overcast
7:36 AM 33.8 °F - 30.2 °F 87% 29.71 in 10.0 mi Calm Calm - N/A   Overcast
7:56 AM 30.2 °F 24.3 °F 28.4 °F 93% 29.71 in 10.0 mi South 5.8 mph - N/A   Mostly Cloudy
8:16 AM 30.2 °F 23.4 °F 28.4 °F 93% 29.70 in 10.0 mi South 6.9 mph - N/A   Scattered Clouds
8:36 AM 30.2 °F 23.4 °F 28.4 °F 93% 29.71 in 10.0 mi South 6.9 mph - N/A   Partly Cloudy
8:56 AM 30.2 °F 24.3 °F 28.4 °F 93% 29.71 in 0.2 mi SSW 5.8 mph - N/A   Overcast
9:16 AM 30.2 °F 26.7 °F 28.4 °F 93% 29.72 in 3.0 mi South 3.5 mph - N/A   Mostly Cloudy
9:36 AM 32.0 °F 28.7 °F 30.2 °F 93% 29.71 in 10.0 mi SSW 3.5 mph - N/A   Scattered Clouds
9:56 AM 32.0 °F - 30.2 °F 93% 29.71 in 10.0 mi Calm Calm - N/A   Clear
10:16 AM 35.6 °F 32.8 °F 33.8 °F 93% 29.71 in 10.0 mi SSW 3.5 mph - N/A   Clear
10:36 AM 35.6 °F - 33.8 °F 93% 29.71 in 10.0 mi Calm Calm - N/A   Partly Cloudy
10:56 AM 37.4 °F - 33.8 °F 87% 29.71 in 10.0 mi Calm Calm - N/A   Partly Cloudy
11:16 AM 37.4 °F 34.9 °F 33.8 °F 87% 29.71 in 10.0 mi SW 3.5 mph - N/A   Partly Cloudy
11:36 AM 37.4 °F 34.9 °F 33.8 °F 87% 29.71 in 10.0 mi SSW 3.5 mph - N/A   Mostly Cloudy
11:56 AM 39.2 °F - 33.8 °F 81% 29.71 in 10.0 mi Calm Calm - N/A   Mostly Cloudy
12:16 PM 42.8 °F 37.5 °F 33.8 °F 70% 29.71 in 10.0 mi ESE 9.2 mph - N/A   Overcast
12:36 PM 41.0 °F 35.8 °F 35.6 °F 81% 29.71 in 10.0 mi WSW 8.1 mph - N/A   Overcast
12:56 PM 39.2 °F 35.9 °F 33.8 °F 81% 29.71 in 10.0 mi West 4.6 mph - N/A   Overcast
1:16 PM 39.2 °F - 33.8 °F 81% 29.71 in 10.0 mi Calm Calm - N/A   Overcast
1:36 PM 39.2 °F - 33.8 °F 81% 29.70 in 10.0 mi Calm Calm - N/A   Overcast
1:56 PM 39.2 °F 34.2 °F 35.6 °F 87% 29.70 in 10.0 mi East 6.9 mph - 0.01 in   Overcast
2:16 PM 42.8 °F 37.0 °F 37.4 °F 81% 29.69 in 10.0 mi East 10.4 mph - N/A   Overcast
2:36 PM 41.0 °F 33.9 °F 35.6 °F 81% 29.68 in 10.0 mi East 12.7 mph - N/A   Overcast
2:56 PM 42.8 °F 35.8 °F 37.4 °F 81% 29.68 in 10.0 mi East 13.8 mph 19.6 mph N/A   Overcast
3:16 PM 42.8 °F 35.1 °F 37.4 °F 81% 29.68 in 10.0 mi East 16.1 mph - N/A   Overcast
3:36 PM 42.8 °F 35.4 °F 39.2 °F 87% 29.67 in 10.0 mi East 15.0 mph - N/A   Overcast
3:56 PM 42.8 °F 34.8 °F 39.2 °F 87% 29.66 in 10.0 mi East 17.3 mph - N/A   Overcast
4:16 PM 42.8 °F 35.1 °F 39.2 °F 87% 29.66 in 9.0 mi East 16.1 mph - N/A   Overcast
4:36 PM 42.8 °F 34.8 °F 39.2 °F 87% 29.66 in 9.0 mi East 17.3 mph - 0.01 in   Overcast
4:56 PM 42.8 °F 35.4 °F 39.2 °F 87% 29.65 in 7.0 mi ESE 15.0 mph - 0.01 in   Mostly Cloudy
5:16 PM 42.8 °F 35.8 °F 41.0 °F 93% 29.64 in 5.0 mi ESE 13.8 mph - N/A   Mostly Cloudy
5:36 PM 44.6 °F 38.4 °F 41.0 °F 87% 29.64 in 6.0 mi East 12.7 mph - N/A   Overcast
5:56 PM 46.4 °F 40.1 °F 44.6 °F 93% 29.63 in 7.0 mi South 15.0 mph - N/A   Overcast
6:16 PM 46.4 °F 40.4 °F 42.8 °F 87% 29.63 in 8.0 mi SSE 13.8 mph 19.6 mph N/A   Overcast
6:36 PM 46.4 °F 40.4 °F 42.8 °F 87% 29.63 in 8.0 mi South 13.8 mph - N/A   Overcast
6:56 PM 46.4 °F 40.4 °F 42.8 °F 87% 29.63 in 10.0 mi South 13.8 mph 17.3 mph N/A   Overcast
7:16 PM 46.4 °F 40.1 °F 42.8 °F 87% 29.63 in 10.0 mi SSW 15.0 mph 19.6 mph N/A   Overcast
7:36 PM 46.4 °F 40.7 °F 42.8 °F 87% 29.64 in 6.0 mi SSW 12.7 mph - N/A   Overcast
7:56 PM 44.6 °F 38.8 °F 42.8 °F 93% 29.64 in 3.0 mi South 11.5 mph - N/A   Overcast
8:16 PM 44.6 °F 38.1 °F 42.8 °F 93% 29.63 in 4.0 mi South 13.8 mph - N/A   Overcast
8:36 PM 44.6 °F 37.8 °F 41.0 °F 87% 29.63 in 10.0 mi SSW 15.0 mph - N/A   Overcast
8:56 PM 44.6 °F 38.8 °F 41.0 °F 87% 29.63 in 10.0 mi SSW 11.5 mph - N/A   Overcast
9:16 PM 44.6 °F 38.8 °F 41.0 °F 87% 29.64 in 10.0 mi SW 11.5 mph - N/A   Overcast
9:36 PM 42.8 °F 35.4 °F 39.2 °F 87% 29.64 in 3.0 mi WSW 15.0 mph - N/A   Overcast
9:56 PM 41.0 °F 33.5 °F 39.2 °F 93% 29.65 in 1.5 mi WSW 13.8 mph - N/A   Overcast
10:16 PM 41.0 °F 34.3 °F 39.2 °F 93% 29.65 in 2.0 mi WSW 11.5 mph - N/A   Overcast
10:36 PM 41.0 °F 34.7 °F 39.2 °F 93% 29.66 in 3.0 mi WSW 10.4 mph - N/A   Overcast
10:56 PM 39.2 °F 33.6 °F 37.4 °F 93% 29.66 in 8.0 mi WSW 8.1 mph - N/A   Overcast
11:16 PM 39.2 °F 32.5 °F 37.4 °F 93% 29.66 in 5.0 mi WSW 10.4 mph - N/A   Overcast
11:36 PM 39.2 °F 33.0 °F 37.4 °F 93% 29.67 in 5.0 mi West 9.2 mph - N/A   Overcast
11:56 PM 39.2 °F 33.0 °F 37.4 °F 93% 29.67 in 10.0 mi West 9.2 mph - N/A   Overcast